[[{"header":{"parameterUnit":"m.s-1","parameterCategory":1,"la1":30.2991,"la2":30.254,"lo1":-89.0895,"lo2":-89.0444,"dy":0.0017,"dx":0.0017,"nx":28,"ny":28,"refTime":"2025-03-31T03:00:00:Z","depth":0,"parameterNumber":2,"parameterNumberName":"U-component_of_WINDS"},"data":[0,0,0,0,0,0,0,0,0,0,0,0,0,0,0,0,0,0,0,0,0,0,0,0,0,0,0,0,0,0,0,0,0,0,0,0,0,0,0,0,0,0,0,0,0,0,0,0,0,0,0,0,0,0,0,0,0,0,-4.1988,-4.1988,0,-4.2025,-4.2025,-4.2026,-4.2007,-4.2006,-4.2005,-4.2004,-4.2039,-4.2041,-4.2043,0,0,0,0,0,0,0,0,0,0,0,0,0,-4.1898,-4.19,-4.1988,-4.1988,-4.1989,-4.2025,-4.2025,-4.2026,-4.2007,-4.2005,-4.2004,-4.2003,-4.2039,-4.2041,-4.2043,0,0,0,0,0,0,0,0,0,0,0,0,0,-4.1936,-4.19,-4.1988,-4.1983,-4.1983,-4.2025,-4.2025,-4.2026,-4.2007,-4.2005,-4.2004,-4.2003,-4.2038,-4.2041,-4.2044,-4.209,0,0,-4.2052,-4.2053,0,0,0,0,0,0,0,0,-4.1934,-4.194,-4.1984,-4.1984,-4.1984,-4.201,-4.2007,-4.2048,-4.2007,-4.1998,-4.2004,-4.2002,-4.2031,-4.2034,-4.2044,-4.2092,-4.2094,-4.2052,-4.2054,-4.2055,-4.2056,0,0,0,0,0,0,0,-4.1932,-4.1938,-4.2002,-4.1984,-4.1984,-4.1979,-4.1983,-4.2015,-4.2022,-4.1999,-4.1997,-4.2002,-4.203,-4.2041,-4.2045,-4.2094,-4.2052,-4.2055,-4.2057,-4.2058,-4.2182,-4.2183,0,0,0,0,0,0,-4.1929,-4.1936,-4.2001,-4.2003,-4.1955,-4.1982,-4.1986,-4.2003,-4.2022,-4.2023,-4.2003,-4.2001,-4.2037,-4.2041,-4.2046,-4.2101,-4.2055,-4.2058,-4.2059,-4.218,-4.2182,-4.2184,0,0,0,0,0,0,-4.1928,-4.1935,-4.2,-4.1969,-4.1977,-4.1985,-4.2004,-4.2004,-4.2015,-4.2025,-4.2026,-4.2013,-4.2036,-4.2042,-4.2079,-4.2102,-4.2059,-4.2062,-4.2178,-4.2181,-4.2183,-4.2211,0,0,0,0,0,0,-4.1925,-4.1935,-4.1953,-4.197,-4.1979,-4.2033,-4.2005,-4.2006,-4.202,-4.2018,-4.2035,-4.2036,-4.2036,-4.2075,-4.2082,-4.2105,-4.2064,-4.2176,-4.2179,-4.2182,-4.2208,-4.2214,-4.2219,0,0,0,0,0,-4.1922,-4.1959,-4.1954,-4.1962,-4.2002,-4.2034,-4.2039,-4.2039,-4.2022,-4.204,-4.2047,-4.2036,-4.2099,-4.2079,-4.2087,-4.2111,-4.2175,-4.2178,-4.2182,-4.2206,-4.2213,-4.2219,0,0,0,0,0,0,-4.1943,-4.1961,-4.1956,-4.2,-4.2016,-4.2031,-4.2053,-4.2047,-4.2067,-4.2063,-4.2061,-4.2065,-4.2104,-4.2111,-4.2089,-4.2157,-4.2134,-4.2139,-4.215,-4.2157,-4.2162,-4.2158,-4.2066,0,0,0,0,0,-4.1953,-4.1979,-4.1993,-4.203,-4.2039,-4.2045,-4.2059,-4.2058,-4.2074,-4.208,-4.2089,-4.2105,-4.2128,-4.2143,-4.2166,-4.2211,-4.2213,-4.2231,-4.2236,-4.2241,-4.2244,-4.2267,-4.2275,-4.2196,-4.2196,-4.2196,0,0,-4.1974,-4.1987,-4.2003,-4.2035,-4.2047,-4.2073,-4.2051,-4.2079,-4.2098,-4.2084,-4.2119,-4.2128,-4.2145,-4.2186,-4.2204,-4.2193,-4.2267,-4.2245,-4.2249,-4.225,-4.2272,-4.2279,-4.2286,-4.2198,-4.2198,-4.2197,0,0,-4.2023,-4.2037,-4.2069,-4.2082,-4.2101,-4.2105,-4.2113,-4.213,-4.2135,-4.2171,-4.2161,-4.2184,-4.2224,-4.2237,-4.2248,-4.2305,-4.2295,-4.2312,-4.234,-4.2363,-4.2369,-4.2374,-4.2392,-4.2399,-4.2317,-4.2317,-4.2317,0,-4.2046,-4.2085,-4.2086,-4.2115,-4.2129,-4.212,-4.2151,-4.2164,-4.2189,-4.2199,-4.2187,-4.2238,-4.2249,-4.2292,-4.2306,-4.2317,-4.2324,-4.2309,-4.2368,-4.2374,-4.2379,-4.2396,-4.2403,-4.2319,-4.2318,-4.2318,-4.2318,0,-4.211,-4.2138,-4.2161,-4.2187,-4.2204,-4.2234,-4.2239,-4.2256,-4.2254,-4.2259,-4.2296,-4.231,-4.2334,-4.2345,-4.2342,-4.2388,-4.238,-4.2369,-4.2345,-4.2388,-4.2404,-4.2411,-4.2321,-4.232,-4.232,-4.2319,0,0,-4.2171,-4.2199,-4.2207,-4.2218,-4.224,-4.226,-4.2291,-4.2315,-4.2329,-4.2348,-4.2372,-4.2408,-4.2397,-4.241,-4.241,-4.243,-4.2472,-4.2416,-4.2416,-4.2423,-4.252,-4.2527,-4.2535,-4.2467,-4.2468,-4.2469,-4.2518,0,-4.2221,-4.2274,-4.2276,-4.2324,-4.2348,-4.2341,-4.2367,-4.2383,-4.2389,-4.2411,-4.2418,-4.2442,-4.2427,-4.2435,-4.2455,-4.2462,-4.249,-4.2459,-4.2487,-4.2488,-4.248,-4.2543,-4.255,-4.2596,-4.2525,-4.2526,-4.2527,0,-4.2285,-4.2306,-4.2356,-4.2374,-4.2385,-4.2408,-4.2431,-4.2452,-4.247,-4.2473,-4.2489,-4.2485,-4.2515,-4.2494,-4.2535,-4.2513,-4.2525,-4.2531,-4.2533,-4.2533,-4.2507,-4.2542,-4.2611,-4.2616,-4.2537,-4.2536,-4.2535,0,-4.2321,-4.2363,-4.2398,-4.2408,-4.2431,-4.2447,-4.2457,-4.2474,-4.2488,-4.2509,-4.2518,-4.2542,-4.2553,-4.2572,-4.2574,-4.2559,-4.2615,-4.2594,-4.2616,-4.2616,-4.2626,-4.2624,-4.2694,-4.2639,-4.2639,-4.2638,-4.2638,0,-4.2374,-4.2404,-4.2414,-4.2435,-4.2469,-4.2473,-4.2506,-4.2515,-4.253,-4.2552,-4.2548,-4.2569,-4.2573,-4.2595,-4.2598,-4.263,-4.2636,-4.2639,-4.2638,-4.2637,-4.2637,-4.2643,-4.2638,-4.264,-4.264,-4.2639,-4.2639,0,-4.2419,-4.2427,-4.2465,-4.2484,-4.2489,-4.2513,-4.2529,-4.2549,-4.2556,-4.2585,-4.2591,-4.2602,-4.2627,-4.2633,-4.2663,-4.2665,-4.2703,-4.2701,-4.2696,-4.2695,-4.2717,-4.2714,-4.279,-4.2799,-4.2741,-4.2741,-4.2742,0,-4.2451,-4.2474,-4.2496,-4.2511,-4.2522,-4.2547,-4.2562,-4.2567,-4.2583,-4.2605,-4.2623,-4.2648,-4.2668,-4.2709,-4.2718,-4.2742,-4.2738,-4.2764,-4.2742,-4.274,-4.2736,-4.2733,-4.2735,-4.2767,-4.2768,-4.2768,-4.2769,0,-4.2505,-4.2509,-4.2531,-4.2555,-4.2574,-4.2593,-4.2611,-4.2624,-4.2631,-4.2649,-4.2676,-4.2692,-4.2723,-4.2747,-4.2771,-4.278,-4.2775,-4.2776,-4.2782,-4.2779,-4.2775,-4.2775,-4.2705,-4.2773,-4.2773,-4.2773,-4.2772,-4.2772,-4.2543,-4.2563,-4.2582,-4.2607,-4.2622,-4.2639,-4.2659,-4.2669,-4.2691,-4.2717,-4.2719,-4.2747,-4.2765,-4.2796,-4.2807,-4.2829,-4.2821,-4.283,-4.2832,-4.2833,-4.2834,-4.2774,-4.2833,-4.2833,-4.2833,-4.2833,-4.2833,0,-4.2595,-4.2608,-4.2631,-4.2657,-4.2677,-4.2673,-4.2693,-4.2709,-4.2734,-4.2752,-4.2772,-4.2802,-4.2826,-4.2839,-4.2863,-4.2878,-4.2876,-4.2883,-4.2881,-4.2883,-4.2841,-4.2832,-4.2884,-4.2884,-4.2884,-4.2884,-4.2884,-4.2884,-4.2625,-4.2658,-4.2664,-4.2704,-4.2716,-4.2744,-4.2756,-4.2772,-4.2785,-4.2819,-4.284,-4.2848,-4.2864,-4.2889,-4.2911,-4.2914,-4.2921,-4.293,-4.2931,-4.2891,-4.2886,-4.2881,-4.2872,-4.2932,-4.2932,-4.2971,-4.2971,-4.2971]},{"header":{"parameterUnit":"m.s-1","parameterCategory":1,"la1":30.2991,"la2":30.254,"lo1":-89.0895,"lo2":-89.0444,"dy":0.0017,"dx":0.0017,"nx":28,"ny":28,"refTime":"2025-03-31T03:00:00:Z","depth":0,"parameterNumber":3,"parameterNumberName":"V-component_of_WINDS"},"data":[0,0,0,0,0,0,0,0,0,0,0,0,0,0,0,0,0,0,0,0,0,0,0,0,0,0,0,0,0,0,0,0,0,0,0,0,0,0,0,0,0,0,0,0,0,0,0,0,0,0,0,0,0,0,0,0,0,0,3.2946,3.2947,0,3.3035,3.3036,3.3037,3.3064,3.3064,3.3063,3.3063,3.3149,3.3152,3.3154,0,0,0,0,0,0,0,0,0,0,0,0,0,3.2798,3.2801,3.2946,3.2947,3.2948,3.3035,3.3036,3.3037,3.3064,3.3063,3.3063,3.3063,3.3148,3.3151,3.3155,0,0,0,0,0,0,0,0,0,0,0,0,0,3.2872,3.2802,3.2946,3.2972,3.2976,3.3034,3.3036,3.3037,3.3064,3.3063,3.3063,3.3062,3.3147,3.3151,3.3155,3.3193,0,0,3.3167,3.3169,0,0,0,0,0,0,0,0,3.2868,3.2877,3.2967,3.2971,3.2974,3.3038,3.3015,3.3089,3.3064,3.303,3.3063,3.3062,3.3112,3.3119,3.3137,3.3197,3.32,3.3168,3.317,3.3172,3.3173,0,0,0,0,0,0,0,3.2863,3.2874,3.2981,3.2968,3.2973,3.2979,3.2989,3.303,3.3074,3.3033,3.3035,3.3046,3.3114,3.3133,3.3139,3.3202,3.3168,3.3171,3.3174,3.3175,3.33,3.3301,0,0,0,0,0,0,3.2854,3.2869,3.2978,3.2984,3.2919,3.2982,3.2993,3.3018,3.3073,3.3081,3.3046,3.3047,3.3126,3.3134,3.3142,3.3192,3.3172,3.3176,3.3178,3.3299,3.33,3.3301,0,0,0,0,0,0,3.285,3.2863,3.2975,3.2927,3.2942,3.2986,3.3013,3.302,3.3039,3.3083,3.3091,3.3058,3.3126,3.3137,3.3181,3.3196,3.3177,3.3181,3.3298,3.3299,3.3301,3.3291,0,0,0,0,0,0,3.2846,3.2862,3.2877,3.2927,3.2944,3.3012,3.3014,3.3022,3.3047,3.3048,3.3096,3.3103,3.3127,3.3175,3.3185,3.3201,3.3184,3.3297,3.3299,3.33,3.329,3.3292,3.3293,0,0,0,0,0,3.2841,3.2869,3.2877,3.289,3.2964,3.3013,3.3023,3.305,3.3048,3.3063,3.3092,3.3102,3.3192,3.3179,3.3191,3.3208,3.3296,3.3298,3.33,3.3289,3.3291,3.3293,0,0,0,0,0,0,3.2816,3.2876,3.2886,3.2931,3.2967,3.3018,3.3038,3.3051,3.3087,3.3087,3.3118,3.3128,3.3171,3.3194,3.3178,3.3249,3.3245,3.3249,3.3233,3.3235,3.3236,3.323,3.3188,0,0,0,0,0,3.2816,3.2852,3.2902,3.2937,3.2955,3.2993,3.3015,3.3034,3.3072,3.3086,3.3118,3.3154,3.3191,3.3214,3.325,3.3294,3.3305,3.3311,3.3313,3.3314,3.3317,3.3345,3.3349,3.3308,3.3308,3.3308,0,0,3.2816,3.2853,3.2873,3.2933,3.2963,3.2999,3.3005,3.3042,3.307,3.3091,3.3137,3.3161,3.3203,3.3248,3.3269,3.3268,3.3332,3.3317,3.3317,3.332,3.3348,3.3351,3.3355,3.3309,3.3309,3.3308,0,0,3.2835,3.2866,3.29,3.2931,3.2978,3.3004,3.3012,3.3062,3.308,3.3126,3.3144,3.3176,3.3238,3.3268,3.3291,3.3325,3.3337,3.3336,3.3344,3.337,3.3374,3.3377,3.3391,3.3395,3.3339,3.3339,3.3339,0,3.2828,3.2885,3.2916,3.2954,3.298,3.3004,3.304,3.3067,3.3122,3.314,3.3138,3.322,3.3249,3.3303,3.3312,3.3329,3.334,3.3331,3.3371,3.3374,3.3378,3.3391,3.3396,3.3339,3.3339,3.3339,3.3339,0,3.2876,3.2915,3.2937,3.2993,3.3021,3.3057,3.3094,3.3119,3.3136,3.3162,3.321,3.3247,3.3292,3.3306,3.3321,3.3363,3.3362,3.3365,3.3361,3.3381,3.3395,3.34,3.3339,3.3339,3.3339,3.3339,0,0,3.2879,3.2955,3.2962,3.2989,3.3044,3.3074,3.3112,3.3159,3.3181,3.3219,3.3252,3.3306,3.3311,3.3337,3.3356,3.3379,3.3407,3.3381,3.3382,3.3386,3.3457,3.3455,3.3461,3.3415,3.3416,3.3417,3.3455,0,3.2906,3.2977,3.3007,3.3064,3.3101,3.3126,3.316,3.3197,3.3223,3.3258,3.3286,3.3325,3.3327,3.3344,3.3368,3.3399,3.3422,3.3396,3.3446,3.3448,3.3436,3.3467,3.3465,3.3498,3.346,3.3461,3.3461,0,3.2946,3.2988,3.3048,3.3102,3.3119,3.3148,3.3195,3.3229,3.3272,3.3289,3.3321,3.334,3.3381,3.3375,3.3433,3.3415,3.3437,3.3456,3.3458,3.3464,3.3456,3.3476,3.3509,3.3515,3.347,3.3469,3.3468,0,3.2945,3.3015,3.3062,3.3084,3.3147,3.3168,3.3195,3.3238,3.3265,3.3305,3.3324,3.3367,3.3392,3.3425,3.3456,3.3448,3.3512,3.3507,3.3528,3.3527,3.354,3.3539,3.3579,3.3553,3.3552,3.3552,3.3552,0,3.2972,3.3009,3.3063,3.3091,3.3134,3.3169,3.321,3.3238,3.3277,3.3312,3.3335,3.3367,3.3405,3.3442,3.3466,3.3512,3.3522,3.3537,3.3543,3.3536,3.3534,3.3551,3.355,3.3554,3.3553,3.3553,3.3553,0,3.2977,3.3015,3.3068,3.3125,3.314,3.3169,3.3217,3.3246,3.3275,3.3318,3.3331,3.3375,3.342,3.3454,3.3511,3.3528,3.3577,3.3582,3.3563,3.3566,3.3585,3.3584,3.3639,3.3648,3.3614,3.3614,3.3615,0,3.2992,3.3022,3.3083,3.3109,3.3137,3.3178,3.3207,3.3244,3.3273,3.3326,3.3349,3.3396,3.3436,3.3507,3.3543,3.3588,3.3596,3.3612,3.3603,3.3595,3.3598,3.3597,3.3601,3.3613,3.3614,3.3614,3.3614,0,3.3016,3.3034,3.3076,3.3125,3.316,3.32,3.324,3.326,3.3304,3.3335,3.3383,3.3414,3.3475,3.3522,3.3571,3.3598,3.3614,3.3617,3.3625,3.3617,3.3606,3.3614,3.3568,3.3615,3.3615,3.3615,3.3615,3.3615,3.3027,3.3056,3.3105,3.3151,3.3187,3.3225,3.3256,3.329,3.3331,3.3385,3.3404,3.3454,3.3499,3.3567,3.3595,3.3634,3.3634,3.3644,3.3647,3.365,3.365,3.3599,3.3643,3.3643,3.3643,3.3643,3.3643,0,3.3053,3.3087,3.313,3.3188,3.3225,3.3239,3.3285,3.3315,3.3359,3.3401,3.3441,3.3497,3.3544,3.3585,3.3634,3.3658,3.3666,3.3669,3.3668,3.3675,3.3646,3.3636,3.3662,3.3662,3.3662,3.3662,3.3662,3.3662,3.3071,3.3122,3.3146,3.3215,3.3248,3.3299,3.3324,3.336,3.3394,3.3457,3.3497,3.3525,3.3567,3.362,3.3663,3.3674,3.3692,3.3693,3.3706,3.3679,3.3676,3.3674,3.3665,3.3696,3.3697,3.3732,3.3732,3.3733]}]]